Home   Weather   Geneva   Past weeks
Flag for USA

Past Weather in Geneva, New York, USA — Yesterday and Last 2 Weeks

Now
46 °F

Passing clouds.


Feels Like: 43 °F
Forecast: 49 / 46 °F
Wind: 6 mph from North

Location: Penn Yan

Current Time: Oct 16, 2019 at 11:55:14 pm

Latest Report: Oct 16, 2019 at 10:53 pm


Visibility: 10 mi

Pressure: 29.47 "Hg

Humidity: 89%

Dew Point: 43 °F

Location of GenevaLocation

Past Weather in Geneva — Graph

°F

Geneva Temperature Yesterday

Maximum temperature yesterday: 60 °F (at 3:53 pm)
Minimum temperature yesterday: 40 °F (at 5:53 am)
Average temperature yesterday: 49 °F

High & Low Weather Summary for the Past Weeks

 TemperatureHumidityPressure
High73 °F (Oct 1, 11:53 pm)100% (Oct 2, 6:53 am)30.46 "Hg (Oct 2, 6:53 am)
Low34 °F (Oct 5, 5:53 am)30% (Oct 13, 5:53 pm)29.49 "Hg (Oct 16, 9:53 pm)
Average53 °F84%30.10 "Hg
* Reported Oct 1 9:53 pm — Oct 16 9:53 pm, Geneva. Weather by CustomWeather, © 2019

Note: Actual official high and low records may vary slightly from our data, if they occured in-between our weather recording intervals... More about our weather records

Advertising

Geneva Weather History for the Previous 24 Hours

Scroll right to see more
 ConditionsComfort  
Time TempWeatherWind HumidityBarometerVisibility
9:53 pm
Wed, Oct 16
48 °FPassing clouds.6 mph83%29.49 "Hg10 mi
8:53 pm48 °FPassing clouds.7 mph86%29.52 "Hg10 mi
7:53 pm48 °FOvercast.No wind100%29.52 "Hg10 mi
6:53 pm49 °FLight rain. Fog.3 mph93%29.53 "Hg6 mi
5:53 pm50 °FRain. Fog.7 mph93%29.53 "Hg3 mi
5:38 pm50 °FRain. Fog.8 mph93%29.53 "Hg2 mi
4:53 pm51 °FLight rain. Fog.9 mph89%29.53 "Hg6 mi
4:33 pm51 °FRain. Fog.8 mph89%29.54 "Hg3 mi
3:59 pm54 °FRain. Fog.8 mph97%29.53 "Hg2 mi
2:53 pm56 °FRain. Fog.7 mph90%29.56 "Hg3 mi
2:32 pm57 °FRain. Fog.8 mph90%29.58 "Hg3 mi
1:53 pm59 °FLight rain. Mostly cloudy.10 mph81%29.60 "Hg5 mi
12:53 pm62 °FMore clouds than sun.18 mph65%29.60 "Hg10 mi
11:53 am62 °FOvercast.17 mph67%29.62 "Hg10 mi
10:53 am61 °FSunny.17 mph70%29.62 "Hg10 mi
9:53 am59 °FSunny.16 mph72%29.64 "Hg10 mi
8:53 am55 °FPassing clouds.16 mph80%29.69 "Hg10 mi
7:53 am54 °FSunny.12 mph77%29.70 "Hg10 mi
6:53 am53 °FPassing clouds.9 mph72%29.73 "Hg10 mi
5:53 am53 °FPassing clouds.9 mph69%29.78 "Hg10 mi
4:53 am51 °FPassing clouds.7 mph74%29.79 "Hg10 mi
3:53 am50 °FClear.8 mph74%29.82 "Hg10 mi
2:53 am50 °FClear.8 mph74%29.85 "Hg10 mi
1:53 am45 °FPassing clouds.7 mph82%29.88 "Hg10 mi
12:53 am43 °FClear.5 mph86%29.91 "Hg10 mi
11:53 pm
Tue, Oct 15
44 °FClear.3 mph82%29.93 "Hg10 mi
Weather by CustomWeather, © 2019

See weather overview